Regional Weather Roundup
Issued by NWS

Home | Current Version | Previous Version | Text Only | Print | Product List | Glossary On
Versions: 1 2 3 4 5 6 7 8 9 10 11 12 13 14 15 16 17 18 19 20 21 22 23 24 25 26 27 28 29 30 31 32 33 34 35 36 37 38 39 40 41 42 43 44 45 46 47 48 49 50
000
ASUS43 KTOP 260508
RWRKS

WEATHER ROUNDUP FOR KANSAS
NATIONAL WEATHER SERVICE GOODLAND KS
1200 AM CDT SUN OCT 26 2014

NOTE:  "FAIR" INDICATES FEW OR NO CLOUDS BELOW 12,000 FEET WITH NO
SIGNIFICANT WEATHER AND/OR OBSTRUCTIONS TO VISIBILITY.

KSZ001>006-013>018-027>032-041>047-260600-
NORTHWEST KANSAS

CITY           SKY/WX    TMP DP  RH WIND       PRES   REMARKS
GOODLAND       CLEAR     50  39  66 W3        29.93F
HAYS           CLEAR     63  52  67 SE7       29.91F
HILL CITY      CLEAR     64  49  57 E6        29.90F
RUSSELL        CLEAR     66  56  70 S12       29.89F
$$

KSZ061>065-074>080-084>089-260600-
SOUTHWEST KANSAS

CITY           SKY/WX    TMP DP  RH WIND       PRES   REMARKS
DODGE CITY     CLEAR     66  48  52 S10       29.94F
ELKHART          N/A     63  42  46 S14         N/A
GARDEN CITY    CLEAR     62  47  57 S9        29.93F
GREAT BEND     CLEAR     64  54  68 S12       29.92F
LIBERAL        CLEAR     64  46  52 S14       29.97F
PRATT          CLEAR     63  52  67 S8        29.96S
$$

KSZ066>073-081>083-090>101-260600-
SOUTHEAST KANSAS

CITY           SKY/WX    TMP DP  RH WIND       PRES   REMARKS
CHANUTE        CLEAR     64  62  93 SE7       29.97F
COFFEYVILLE    CLEAR     66  62  87 S5        29.97F
HUTCHINSON     CLEAR     64  56  75 SE5       29.94S
MEDICINE LODGE   N/A     68  54  60 S8        29.94S
NEWTON         CLEAR     66  55  68 S7        29.97S
PARSONS        CLEAR     67  63  87 S3        29.98F
WICHITA INTL   CLEAR     65  58  78 S6        29.94S
WICHITA JABRA  CLEAR     67  59  75 S8        29.95S
WICHITA MCCONL CLEAR     69  61  77 SE8       29.95S
WINFIELD       CLEAR     68  60  75 S9        29.96F
$$

KSZ007>012-019>026-033>040-048>060-102>105-260600-
NORTHEAST KANSAS

CITY           SKY/WX    TMP DP  RH WIND       PRES   REMARKS
CONCORDIA      CLEAR     59  56  89 E5        29.93F
EMPORIA        CLEAR     65  61  87 S9        29.95F
LAWRENCE       CLEAR     61  55  81 SE6       29.98S
MANHATTAN      CLEAR     64  58  80 N5        29.95S
MARYSVILLE     CLEAR     63  48  59 SE12      29.96F
OLATHE IND     CLEAR     63  57  81 SE6       30.00S
OLATHE EXE     CLEAR     64  57  78 SE5       29.99S
SALINA         CLEAR     64  57  78 SE5       29.92F
TOPEKA BILLARD CLEAR     63  58  83 CALM      29.98R
TOPEKA FORBES  CLEAR     63  58  83 SE8       29.97S
$$



USA.gov is the U.S. government's official web portal to all federal, state and local government web resources and services.